| time (UTC) | temp F | wind direction | speed knots | gust knots | rain 1hr in | rain 24hr in | rain mn in | humidity % | barometer mb |
| 20260505075629 | 60 | 180 | 12.2 | 21.7 | 0.00 | 0.00 | 0.00 | 50 | 1008.0 |
| 20260505074628 | 60 | 215 | 15.6 | 20.0 | 0.00 | 0.00 | 0.00 | 50 | 1008.1 |
| 20260505073628 | 60 | 223 | 15.6 | 27.8 | 0.00 | 0.00 | 0.00 | 49 | 1008.1 |
| 20260505072627 | 60 | 234 | 15.6 | 22.6 | 0.00 | 0.00 | 0.00 | 48 | 1008.0 |
| 20260505071630 | 60 | 235 | 19.1 | 24.3 | 0.00 | 0.00 | 0.00 | 50 | 1007.9 |
| 20260505070631 | 60 | 218 | 16.5 | 23.5 | 0.00 | 0.00 | 0.00 | 52 | 1008.2 |
| 20260505065622 | 60 | 207 | 17.4 | 23.5 | 0.00 | 0.00 | 0.00 | 50 | 1008.4 |
| 20260505064621 | 60 | 219 | 17.4 | 26.1 | 0.00 | 0.00 | 0.00 | 51 | 1008.4 |
| 20260505063619 | 61 | 229 | 12.2 | 24.3 | 0.00 | 0.00 | 0.00 | 48 | 1008.4 |
| 20260505062638 | 62 | 220 | 12.2 | 20.0 | 0.00 | 0.00 | 0.00 | 46 | 1008.2 |
| 20260505061617 | 62 | 187 | 13.0 | 25.2 | 0.00 | 0.00 | 0.00 | 48 | 1008.1 |
| 20260505060653 | 62 | 215 | 13.0 | 22.6 | 0.00 | 0.00 | 0.00 | 48 | 1008.1 |
| 20260505055615 | 63 | 221 | 15.6 | 26.1 | 0.00 | 0.00 | 0.00 | 45 | 1007.9 |
| 20260505054620 | 63 | 240 | 13.0 | 26.1 | 0.00 | 0.00 | 0.00 | 43 | 1007.8 |
| 20260505053627 | 64 | 229 | 13.9 | 21.7 | 0.00 | 0.00 | 0.00 | 40 | 1007.6 |
| 20260505052626 | 64 | 225 | 11.3 | 21.7 | 0.00 | 0.00 | 0.00 | 39 | 1007.6 |
| 20260505051625 | 62 | 198 | 9.6 | 18.2 | 0.00 | 0.00 | 0.00 | 42 | 1007.6 |
| 20260505050624 | 59 | 195 | 6.1 | 7.8 | 0.00 | 0.00 | 0.00 | 46 | 1007.6 |
| 20260505041614 | 61 | 145 | 2.6 | 7.8 | 0.00 | 0.00 | 0.00 | 43 | 1007.4 |
| 20260505040654 | 65 | 199 | 3.5 | 8.7 | 0.00 | 0.00 | 0.00 | 37 | 1007.3 |
| 20260505035646 | 65 | 217 | 5.2 | 9.6 | 0.00 | 0.00 | 0.00 | 37 | 1007.3 |
| 20260505034623 | 64 | 218 | 5.2 | 9.6 | 0.00 | 0.00 | 0.00 | 37 | 1007.1 |
| 20260505033621 | 64 | 217 | 6.1 | 7.8 | 0.00 | 0.00 | 0.00 | 38 | 1007.0 |
| 20260505032641 | 65 | 210 | 7.0 | 9.6 | 0.00 | 0.00 | 0.00 | 35 | 1006.8 |
| 20260505031621 | 64 | 227 | 5.2 | 9.6 | 0.00 | 0.00 | 0.00 | 38 | 1006.8 |
| 20260505030620 | 61 | 166 | 4.3 | 6.1 | 0.00 | 0.00 | 0.00 | 44 | 1006.7 |
| 20260505025629 | 61 | 167 | 4.3 | 8.7 | 0.00 | 0.00 | 0.00 | 46 | 1006.8 |
| 20260505024628 | 64 | 144 | 3.5 | 8.7 | 0.00 | 0.00 | 0.00 | 41 | 1006.7 |
| 20260505023625 | 63 | 211 | 5.2 | 6.1 | 0.00 | 0.00 | 0.00 | 43 | 1006.3 |
| 20260505022626 | 62 | 153 | 3.5 | 6.1 | 0.00 | 0.00 | 0.00 | 46 | 1006.3 |
| 20260505021625 | 64 | 143 | 3.5 | 5.2 | 0.00 | 0.00 | 0.00 | 42 | 1006.2 |
| 20260505020649 | 64 | 153 | 1.7 | 6.1 | 0.00 | 0.00 | 0.00 | 39 | 1006.1 |
| 20260505015623 | 64 | 204 | 2.6 | 6.1 | 0.00 | 0.00 | 0.00 | 38 | 1006.2 |
| 20260505014644 | 64 | 138 | 3.5 | 6.1 | 0.00 | 0.00 | 0.00 | 39 | 1006.2 |
| 20260505013621 | 65 | 122 | 2.6 | 5.2 | 0.00 | 0.00 | 0.00 | 38 | 1006.1 |
| 20260505012620 | 66 | 101 | 3.5 | 5.2 | 0.00 | 0.00 | 0.00 | 35 | 1006.2 |
| 20260505011621 | 67 | 56 | 2.6 | 7.8 | 0.00 | 0.00 | 0.00 | 32 | 1006.3 |
| 20260505010620 | 69 | 90 | 3.5 | 4.3 | 0.00 | 0.00 | 0.00 | 30 | 1006.4 |
| 20260505005627 | 69 | 244 | 2.6 | 8.7 | 0.00 | 0.00 | 0.00 | 29 | 1006.1 |
| 20260505004627 | 69 | 269 | 10.4 | 15.6 | 0.00 | 0.00 | 0.00 | 29 | 1006.3 |
| 20260505003651 | 69 | 314 | 15.6 | 21.7 | 0.00 | 0.00 | 0.00 | 28 | 1006.4 |
| 20260505002649 | 68 | 317 | 10.4 | 20.9 | 0.00 | 0.00 | 0.00 | 34 | 1006.7 |
| 20260505001626 | 68 | 312 | 13.9 | 22.6 | 0.00 | 0.00 | 0.00 | 34 | 1007.0 |
| 20260505000651 | 69 | 290 | 5.2 | 12.2 | 0.00 | 0.00 | 0.00 | 34 | 1006.8 |
| 20260504235620 | 69 | 360 | 12.2 | 18.2 | 0.00 | 0.00 | 0.00 | 34 | 1006.7 |
| 20260504234640 | 70 | 339 | 6.1 | 15.6 | 0.00 | 0.00 | 0.00 | 34 | 1006.7 |
| 20260504233638 | 73 | 336 | 12.2 | 20.9 | 0.00 | 0.00 | 0.00 | 28 | 1006.9 |
| 20260504232616 | 73 | 221 | 6.1 | 8.7 | 0.00 | 0.00 | 0.00 | 23 | 1006.6 |
| 20260504231616 | 74 | 229 | 5.2 | 7.8 | 0.00 | 0.00 | 0.00 | 24 | 1006.4 |
| 20260504230620 | 73 | 267 | 3.5 | 9.6 | 0.00 | 0.00 | 0.00 | 25 | 1006.5 |
| 20260504225627 | 73 | 300 | 8.7 | 11.3 | 0.00 | 0.00 | 0.00 | 25 | 1006.4 |
| 20260504224626 | 73 | 299 | 6.1 | 10.4 | 0.00 | 0.00 | 0.00 | 24 | 1006.4 |
| 20260504223626 | 73 | 291 | 4.3 | 6.1 | 0.00 | 0.00 | 0.00 | 27 | 1006.3 |
| 20260504222626 | 73 | 103 | 1.7 | 7.8 | 0.00 | 0.00 | 0.00 | 27 | 1006.3 |
| 20260504221625 | 71 | 270 | 5.2 | 7.8 | 0.00 | 0.00 | 0.00 | 34 | 1006.4 |
| 20260504220624 | 73 | 209 | 5.2 | 12.2 | 0.00 | 0.00 | 0.00 | 26 | 1006.5 |
| 20260504215637 | 74 | 127 | 4.3 | 8.7 | 0.00 | 0.00 | 0.00 | 26 | 1006.7 |
| 20260504214640 | 73 | 192 | 4.3 | 8.7 | 0.00 | 0.00 | 0.00 | 26 | 1006.9 |
| 20260504213619 | 73 | 127 | 4.3 | 8.7 | 0.00 | 0.00 | 0.00 | 27 | 1007.1 |
| 20260504212618 | 73 | 153 | 2.6 | 7.0 | 0.00 | 0.00 | 0.00 | 28 | 1007.2 |
| 20260504211617 | 74 | 56 | 1.7 | 7.8 | 0.00 | 0.00 | 0.00 | 29 | 1007.6 |
| 20260504210616 | 74 | 196 | 4.3 | 13.0 | 0.00 | 0.00 | 0.00 | 30 | 1007.7 |
| 20260504205615 | 72 | 355 | 3.5 | 5.2 | 0.00 | 0.00 | 0.00 | 31 | 1007.6 |
| 20260504204614 | 72 | 320 | 4.3 | 7.0 | 0.00 | 0.00 | 0.00 | 32 | 1007.7 |
| 20260504203619 | 72 | 268 | 0.0 | 2.6 | 0.00 | 0.00 | 0.00 | 31 | 1007.8 |
| 20260504202620 | 70 | 200 | 1.7 | 5.2 | 0.00 | 0.00 | 0.00 | 32 | 1007.9 |
| 20260504201640 | 70 | 24 | 5.2 | 8.7 | 0.00 | 0.00 | 0.00 | 33 | 1007.9 |
| 20260504200620 | 71 | 20 | 5.2 | 8.7 | 0.00 | 0.00 | 0.00 | 34 | 1008.0 |
| 20260504195634 | 70 | 30 | 3.5 | 8.7 | 0.00 | 0.00 | 0.00 | 33 | 1008.2 |
| 20260504194634 | 71 | 19 | 3.5 | 7.8 | 0.00 | 0.00 | 0.00 | 35 | 1008.1 |
| 20260504193632 | 70 | 32 | 4.3 | 7.8 | 0.00 | 0.00 | 0.00 | 34 | 1008.5 |
| 20260504192615 | 70 | 24 | 3.5 | 7.8 | 0.00 | 0.00 | 0.00 | 35 | 1008.6 |
| 20260504191614 | 69 | 311 | 3.5 | 8.7 | 0.00 | 0.00 | 0.00 | 35 | 1008.7 |
| 20260504190634 | 68 | 12 | 4.3 | 9.6 | 0.00 | 0.00 | 0.00 | 36 | 1009.0 |
| 20260504185646 | 68 | 5 | 5.2 | 9.6 | 0.00 | 0.00 | 0.00 | 37 | 1009.4 |
| 20260504184626 | 67 | 39 | 5.2 | 8.7 | 0.00 | 0.00 | 0.00 | 39 | 1009.5 |
| 20260504183626 | 67 | 341 | 1.7 | 7.0 | 0.00 | 0.00 | 0.00 | 40 | 1009.7 |
| 20260504182625 | 67 | 355 | 3.5 | 7.0 | 0.00 | 0.00 | 0.00 | 39 | 1009.7 |
| 20260504181623 | 67 | 5 | 4.3 | 7.0 | 0.00 | 0.00 | 0.00 | 41 | 1010.0 |
| 20260504180620 | 66 | 19 | 2.6 | 7.0 | 0.00 | 0.00 | 0.00 | 42 | 1010.2 |
| 20260504175614 | 65 | 338 | 6.1 | 8.7 | 0.00 | 0.00 | 0.00 | 41 | 1010.2 |
| 20260504174637 | 65 | 343 | 4.3 | 7.0 | 0.00 | 0.00 | 0.00 | 41 | 1010.3 |
| 20260504173615 | 64 | 264 | 2.6 | 6.1 | 0.00 | 0.00 | 0.00 | 41 | 1010.4 |
| 20260504172633 | 64 | 355 | 3.5 | 4.3 | 0.00 | 0.00 | 0.00 | 40 | 1010.5 |
| 20260504171632 | 63 | 304 | 0.9 | 5.2 | 0.00 | 0.00 | 0.00 | 41 | 1010.7 |
| 20260504170631 | 62 | 21 | 1.7 | 7.0 | 0.00 | 0.00 | 0.00 | 42 | 1010.7 |
| 20260504150615 | 54 | 328 | 1.7 | 4.3 | 0.00 | 0.00 | 0.00 | 46 | 1010.8 |
| 20260504140618 | 49 | 131 | 0.0 | 3.5 | 0.00 | 0.00 | 0.00 | 53 | 1011.2 |
| 20260504130632 | 47 | 70 | 1.7 | 3.5 | 0.00 | 0.00 | 0.00 | 52 | 1011.0 |
| 20260504110635 | 47 | 145 | 2.6 | 5.2 | 0.00 | 0.00 | 0.00 | 51 | 1010.5 |
| 20260504081615 | 52 | 136 | 3.5 | 7.8 | 0.00 | 0.00 | 0.00 | 41 | 1010.2 |
| 20260504080633 | 51 | 189 | 5.2 | 7.8 | 0.00 | 0.00 | 0.00 | 43 | 1010.3 |